Regional Weather Roundup
Issued by NWS

Home | Current Version | Previous Version | Graphics & Text | Print | Product List | Glossary On
Versions: 1 2 3 4 5 6 7 8 9 10 11 12 13 14 15 16 17 18 19 20 21 22 23 24 25 26 27 28 29 30 31 32 33 34 35 36 37 38 39 40 41 42 43 44 45 46 47 48 49 50
000
ASUS43 KFSD 070410
RWRSD

WEATHER ROUNDUP FOR SOUTH DAKOTA
NATIONAL WEATHER SERVICE SIOUX FALLS SD
1100 PM CDT MON JUL 06 2015

NOTE: "FAIR" INDICATES FEW OR NO CLOUDS BELOW 12,000 FEET WITH NO
SIGNIFICANT WEATHER AND/OR OBSTRUCTIONS TO VISIBILITY.


SDZ001>005-009-010-012>017-070500-
NORTHWEST AND NORTH CENTRAL SOUTH DAKOTA

CITY           SKY/WX    TMP DP  RH WIND       PRES   REMARKS
BUFFALO          N/A     60  50  69 E8        30.12R
FAITH            N/A     59  52  77 E7        30.18R
MOBRIDGE       CLEAR     62  56  80 NE12      30.15R HAZE
$$

SDZ012>016-024>037-041>051-057-063-072>074-070500-
SOUTHWEST AND SOUTH CENTRAL SOUTH DAKOTA

CITY           SKY/WX    TMP DP  RH WIND       PRES   REMARKS
RAPID CTY ARPT CLOUDY    63  57  81 N5        30.21R
PIERRE         CLEAR     61  55  81 NE6       30.14R
CUSTER         CLOUDY    56  51  84 CALM      30.30R HAZE
ELLSWORTH AFB  CLOUDY    66  54  65 NE3       30.20R
PHILIP         CLOUDY    64  58  80 CALM      30.17R
PINE RIDGE     MOCLDY    60  56  86 E5        30.22R
SPEARFISH      MOCLDY    57  55  94 S5        30.23R
WINNER         FAIR      64  55  72 E5        30.17R
$$

SDZ004>011-016>023-039-040-070500-
NORTHEAST SOUTH DAKOTA

CITY           SKY/WX    TMP DP  RH WIND       PRES   REMARKS
ABERDEEN       CLEAR     59  52  77 NE6       30.16R
WATERTOWN      CLEAR     56  51  84 N3        30.15R
BROOKINGS      CLEAR     57  50  77 NE6       30.16R
SISSETON         N/A     53  49  86 N5        30.14R
$$

SDZ017-020-022-023-036>040-048>070-070500-
SOUTHEAST SOUTH DAKOTA

CITY           SKY/WX    TMP DP  RH WIND       PRES   REMARKS
SIOUX FALLS    CLEAR     60  53  77 N6        30.12R
HURON          MOCLDY    61  55  81 N5        30.14R HAZE
CHAMBERLAIN    MOCLDY    64  58  81 NE3       30.16R
MITCHELL       CLEAR     62  58  86 CALM      30.15R
YANKTON        CLEAR     61  54  77 N5        30.12R
$$

ABBREVIATIONS USED IN REMARKS
   TC - TEMPERATURE IN CELSIUS
  WCI - WIND CHILL INDEX
   HX - HEAT INDEX
  VSB - VISIBILITY



USA.gov is the U.S. government's official web portal to all federal, state and local government web resources and services.